Deer Park, WA
on Monday, December 24, 2012

Monday
Previous Day Next Day
Daily Summary
 ActualAverageRecord
Temperature
Mean Temperature °F 24°F  
Max Temperature 34°F 31°F 46°F (2005)
Min Temperature 28°F 18°F 12°F (2007)
Degree Days
Heating Degree Days 34 41  
Month to date heating degree days 768 943  
Since 1 July heating degree days 2505 2946  
Cooling Degree Days 0 0  
Month to date cooling degree days 0 0  
Year to date cooling degree days 232 187  
Moisture
Dew Point 30°F   
Average Humidity 96    
Maximum Humidity 100    
Minimum Humidity 92    
Precipitation
Precipitation 0.21 in 0.10 in 0.52 in (2008)
Month to date precipitation 2.43 2.20  
Year to date precipitation 26.54 21.59  
Wind
Wind Speed 5 mph   
Max Wind Speed 16 mph   
Max Gust Speed 20 mph   
Visibility 5 miles   
Events Fog , Snow   

Key: T is trace of precipitation, MM is missing value
Source: NWS Daily Summary
Time(PST)TemperatureDew PointHumidity Pressure Visibility Wind DirectionWind SpeedGust SpeedPrecipitationEvents Conditions
12:02 AM 33.8°F 32.0°F 93% 29.63 in 0.8 miles NNE 12.7 mph - 0.01 in Snow Light Snow
12:14 AM 33.8°F 32.0°F 93% 29.63 in 1.0 miles NE 11.5 mph - 0.02 in Snow Light Snow
12:53 AM 33.1°F 32.0°F 96% 29.68 in 1.2 miles NE 12.7 mph - 0.05 in Snow Light Snow
1:09 AM 33.8°F 32.0°F 93% 29.65 in 1.5 miles NE 10.4 mph - 0.01 in Snow Light Snow
1:24 AM 33.8°F 32.0°F 93% 29.66 in 0.5 miles SE 8.1 mph - 0.03 in Fog , Snow Snow
1:44 AM 32.0°F 32.0°F 100% 29.67 in 0.8 miles ESE 5.8 mph - 0.07 in Snow Light Snow
1:53 AM 32.0°F 32.0°F 100% 29.73 in 0.8 miles East 5.8 mph - 0.08 in Snow Light Snow
2:20 AM 32.0°F 30.2°F 93% 29.69 in 1.0 miles SE 12.7 mph - 0.02 in Snow Light Snow
2:34 AM 30.2°F 30.2°F 100% 29.70 in 1.0 miles SSE 8.1 mph - 0.03 in Snow Light Snow
2:53 AM 30.9°F 30.9°F 100% 29.75 in 1.0 miles SE 8.1 mph - 0.04 in Snow Light Snow
3:14 AM 30.2°F 30.2°F 100% 29.71 in 2.0 miles SE 6.9 mph - 0.00 in Snow Light Snow
3:36 AM 30.2°F 30.2°F 100% 29.71 in 1.8 miles ESE 6.9 mph - 0.00 in Snow Light Snow
3:53 AM 30.9°F 30.9°F 100% 29.77 in 1.5 miles ESE 5.8 mph - 0.01 in Snow Light Snow
4:51 AM 30.2°F 30.2°F 100% 29.74 in 1.8 miles East 5.8 mph - 0.01 in Snow Light Snow
4:53 AM 30.9°F 30.9°F 100% 29.79 in 2.0 miles East 4.6 mph - 0.01 in Snow Light Snow
4:58 AM 30.2°F 30.2°F 100% 29.74 in 1.8 miles East 5.8 mph - 0.00 in Snow Light Snow
5:08 AM 30.2°F 30.2°F 100% 29.74 in 2.0 miles East 5.8 mph - 0.01 in Snow Light Snow
5:26 AM 30.2°F 30.2°F 100% 29.75 in 2.0 miles East 4.6 mph - 0.01 in Snow Light Snow
5:40 AM 30.2°F 30.2°F 100% 29.76 in 1.8 miles East 4.6 mph - 0.01 in Snow Light Snow
5:53 AM 30.9°F 30.9°F 100% 29.82 in 1.8 miles East 3.5 mph - 0.01 in Snow Light Snow
6:16 AM 30.2°F 30.2°F 100% 29.78 in 2.0 miles ENE 3.5 mph - 0.01 in Snow Light Snow
6:23 AM 30.2°F 30.2°F 100% 29.78 in 1.5 miles ENE 4.6 mph - 0.01 in Snow Light Snow
6:33 AM 30.2°F 30.2°F 100% 29.78 in 2.0 miles NNE 8.1 mph - 0.01 in Snow Light Snow
6:42 AM 30.2°F 30.2°F 100% 29.79 in 8.0 miles NE 4.6 mph - 0.01 in   Overcast
6:53 AM 30.0°F 28.9°F 96% 29.85 in 10.0 miles North 5.8 mph - 0.01 in   Overcast
7:16 AM 30.2°F 28.4°F 93% 29.81 in 10.0 miles North 4.6 mph - N/A   Overcast
7:51 AM 28.4°F 28.4°F 100% 29.83 in 9.0 miles NNW 5.8 mph - 0.00 in   Overcast
7:53 AM 28.9°F 28.0°F 96% 29.88 in 10.0 miles NNW 5.8 mph - 0.00 in   Overcast
8:09 AM 28.4°F 28.4°F 100% 29.84 in 10.0 miles NNW 4.6 mph - N/A   Overcast
8:53 AM 30.0°F 28.9°F 96% 29.93 in 5.0 miles NNW 4.6 mph - 0.00 in Snow Light Snow
9:53 AM 28.9°F 28.0°F 96% 29.97 in 10.0 miles NW 4.6 mph - 0.00 in   Mostly Cloudy
10:53 AM 30.9°F 30.0°F 96% 29.99 in 10.0 miles NW 3.5 mph - N/A   Mostly Cloudy
11:53 AM 28.9°F 28.9°F 100% 30.01 in 10.0 miles Calm Calm - N/A   Overcast
12:53 PM 30.9°F 30.9°F 100% 30.03 in 10.0 miles Calm Calm - N/A   Scattered Clouds
1:53 PM 32.0°F 30.0°F 92% 30.06 in 10.0 miles Calm Calm - N/A   Overcast
2:53 PM 32.0°F 30.0°F 92% 30.09 in 10.0 miles South 5.8 mph - N/A   Overcast
3:53 PM 30.0°F 30.0°F 100% 30.12 in 10.0 miles South 5.8 mph - N/A   Overcast
4:53 PM 32.0°F 30.9°F 96% 30.14 in 10.0 miles SSE 4.6 mph - N/A   Overcast
5:32 PM 30.2°F 30.2°F 100% 30.09 in 10.0 miles SSE 4.6 mph - N/A   Overcast
5:50 PM 32.0°F 30.2°F 93% 30.09 in 8.0 miles SE 5.8 mph - 0.00 in Snow Light Snow
5:53 PM 30.9°F 30.9°F 100% 30.16 in 7.0 miles SE 5.8 mph - 0.00 in Snow Light Snow
6:30 PM 30.2°F 30.2°F 100% 30.10 in 3.0 miles SE 5.8 mph - 0.00 in   Overcast
6:44 PM 30.2°F 30.2°F 100% 30.10 in 1.8 miles SE 5.8 mph - 0.00 in   Overcast
6:53 PM 30.9°F 30.9°F 100% 30.17 in 1.5 miles SE 3.5 mph - 0.00 in   Overcast
7:13 PM 30.2°F 30.2°F 100% 30.10 in 3.0 miles Calm Calm - N/A   Overcast
7:53 PM 30.0°F 30.0°F 100% 30.17 in 6.0 miles South 5.8 mph - N/A   Overcast
8:53 PM 30.9°F 30.0°F 96% 30.18 in 6.0 miles South 5.8 mph - N/A   Overcast
9:53 PM 30.0°F 30.0°F 100% 30.19 in 8.0 miles South 4.6 mph - N/A   Overcast
10:28 PM 30.2°F 28.4°F 93% 30.13 in 10.0 miles South 5.8 mph - N/A   Overcast
10:53 PM 30.0°F 28.9°F 96% 30.20 in 9.0 miles SSW 3.5 mph - N/A   Overcast
11:08 PM 30.2°F 28.4°F 93% 30.14 in 5.0 miles SW 3.5 mph - N/A   Overcast
11:21 PM 30.2°F 28.4°F 93% 30.14 in 2.0 miles WSW 3.5 mph - N/A   Overcast
11:46 PM 30.2°F 30.2°F 100% 30.13 in 1.5 miles Calm Calm - 0.00 in   Overcast
11:53 PM 30.0°F 30.0°F 100% 30.21 in 1.0 miles Calm Calm - 0.00 in   Mist
Moon Phase
Dec. 24 Dec. 28 Jan. 04 Jan. 11 Jan. 18
Sunrise:07:38 AM (PST) Moon Rise:01:36 PM (PST)
Sunset:04:01 PM (PST) Moon Set:04:14 AM (PST)

Copyright © 2014 The Weather Underground, Inc.